Theta_e
282 282 282 281 282 283 282 280 280 279 279 280 280 280 281 281 282 282 282 283 283 284 285 286 287 287 288 287 288 288 289 289 289 289 289 289 291 293 290 288 287 288
281 282 282 281 282 283 282 280 279 279 279 279 280 280 280 281 281 281 281 282 282 283 284 285 285 286 286 286 286 286 287 287 287 289 288 288 291 290 287 287 288 289
281 280 280 280 280 281 280 280 279 279 278 279 279 279 279 280 280 280 280 281 281 281 283 284 284 285 285 285 285 285 286 286 286 287 287 288 289 287 287 287 288 288
280 280 279 280 280 281 279 278 278 278 278 278 278 278 279 279 279 279 279 280 280 281 282 283 283 284 284 284 284 284 285 285 285 286 286 287 287 286 286 287 287 287
279 279 279 279 280 280 278 277 277 277 277 277 277 278 278 277 278 278 278 279 279 280 281 281 282 283 283 283 283 283 283 284 284 285 286 286 285 285 286 287 286 285
279 279 279 279 279 279 277 277 277 276 276 276 276 277 277 277 277 277 277 277 278 279 279 280 281 281 282 282 282 282 282 282 283 285 285 284 283 285 286 286 286 285
278 278 278 278 277 278 276 276 276 276 275 276 276 275 276 275 276 276 276 277 277 278 278 278 279 279 280 281 281 281 281 282 283 283 283 283 283 284 285 285 285 285
277 278 277 277 276 276 275 275 275 275 275 275 274 275 275 275 275 276 276 276 276 276 277 277 277 278 279 280 279 279 280 282 282 282 281 282 283 283 284 285 284 284
276 276 276 275 275 275 274 275 274 274 275 274 274 274 275 275 275 275 275 275 275 276 276 276 276 277 278 278 278 279 279 280 280 280 280 281 282 282 283 283 283 283
275 275 274 274 274 274 273 274 274 273 274 273 273 274 274 274 274 274 274 274 274 274 275 275 275 276 276 277 277 278 278 279 279 280 280 281 281 282 282 282 282 282
274 274 274 273 273 273 273 273 273 273 273 273 273 273 273 273 274 274 273 273 273 273 274 274 275 275 275 276 277 277 278 278 279 279 280 281 281 282 283 282 282 282
273 273 273 273 273 273 273 273 273 272 272 272 273 272 272 273 273 273 273 273 273 273 273 274 274 274 275 275 275 277 277 278 279 279 280 280 281 281 281 281 281 281
273 273 273 273 272 273 273 273 272 272 272 272 272 272 272 272 272 272 272 273 272 273 273 273 274 274 274 274 275 276 277 278 279 279 280 280 280 280 281 281 282 282
273 273 273 272 273 273 272 272 272 271 271 272 272 271 272 272 271 272 272 272 272 272 273 273 273 273 274 274 275 277 278 278 279 279 279 279 279 280 281 282 282 282
273 273 272 272 272 272 272 271 271 271 271 271 271 271 272 271 271 271 271 271 272 272 272 273 273 273 274 275 276 277 278 278 278 278 278 278 279 280 281 281 281 281
272 272 272 272 272 271 271 271 270 270 271 270 271 271 271 271 271 271 271 271 271 271 271 272 272 273 275 278 279 278 278 278 278 278 278 278 279 280 279 279 279 279
272 271 271 271 271 271 271 270 270 270 270 270 270 270 270 270 270 270 270 270 270 270 270 271 272 273 276 278 279 280 278 277 277 277 278 278 278 278 278 278 278 277
271 271 271 271 271 270 270 270 270 269 269 269 269 269 269 270 269 269 270 270 270 270 270 271 271 274 277 278 279 280 280 278 277 277 277 277 277 277 277 276 275 275
271 270 270 270 270 270 270 269 269 269 269 269 268 269 269 269 269 269 269 269 269 269 269 270 270 274 276 278 278 279 279 279 277 276 276 276 277 277 276 275 274 274
270 270 270 270 270 269 269 269 268 268 268 268 268 268 268 268 268 268 268 269 269 269 269 270 270 273 276 277 277 278 279 279 276 275 275 276 276 276 275 274 274 273
270 269 269 269 269 269 268 268 268 267 267 268 268 267 267 267 267 267 267 268 268 269 269 269 270 274 276 276 277 278 278 278 275 275 275 275 276 276 275 274 274 274
269 269 269 269 268 268 267 267 267 267 266 267 267 267 267 267 267 268 267 267 268 268 268 268 269 274 275 276 277 277 278 275 274 274 274 275 275 275 274 274 274 274
269 269 268 268 268 267 266 266 266 266 266 267 266 266 266 266 266 266 267 267 267 268 267 267 268 271 274 275 276 277 276 273 273 273 274 274 274 274 273 273 273 274
269 268 268 267 267 266 266 266 266 266 266 266 265 265 265 266 266 266 266 267 267 267 267 267 268 271 274 274 275 276 275 272 272 272 272 273 273 273 272 272 273 275
268 268 267 267 266 266 266 265 265 265 264 265 265 265 265 265 265 265 266 266 267 267 268 268 268 269 272 273 274 275 274 272 272 271 271 272 272 271 272 272 272 274
268 267 267 266 265 265 265 264 264 264 264 264 264 264 264 264 264 265 265 265 266 266 267 267 267 267 269 273 274 274 275 272 271 271 270 270 271 271 270 271 272 273
Wind_Speed
10 10 10 9 8 8 9 11 10 10 10 10 10 11 11 12 14 14 14 13 13 12 12 12 11 11 11 12 12 11 10 11 11 11 12 13 11 11 12 15 14 11
10 11 10 9 8 8 8 9 9 9 9 10 10 10 10 11 13 13 14 14 13 13 13 12 12 12 11 10 12 12 11 11 12 9 12 14 11 12 13 15 12 12
9 10 10 10 9 9 10 10 9 9 9 10 10 10 9 10 12 13 12 12 12 13 12 12 12 12 11 11 11 11 10 12 12 12 12 12 12 12 12 12 11 13
8 9 9 9 9 8 9 9 10 9 10 10 11 10 10 10 11 12 12 13 11 12 11 11 12 11 11 11 12 10 11 10 10 12 11 10 11 12 11 11 12 12
8 8 9 8 9 8 9 10 11 11 10 10 10 11 11 12 12 12 11 12 12 12 11 12 12 12 12 11 11 11 12 10 11 12 12 12 10 10 10 11 12 13
7 6 7 7 8 8 9 9 9 9 10 11 12 10 10 11 11 12 13 13 12 12 12 12 12 12 12 12 11 10 11 12 12 13 14 13 12 11 10 11 12 13
7 6 8 7 8 8 9 8 8 9 9 9 9 10 10 11 11 11 11 11 12 12 12 12 13 13 11 10 10 12 11 13 13 13 14 13 13 14 12 12 12 13
5 4 6 6 7 6 8 7 8 8 8 8 9 9 9 10 11 10 10 11 11 11 12 12 12 12 12 10 11 12 11 10 12 14 14 14 13 13 13 11 12 13
4 4 5 5 6 6 7 7 8 8 8 8 9 8 9 9 10 10 11 11 11 11 11 11 12 12 11 12 12 12 12 12 14 15 15 14 14 14 14 13 14 14
4 4 5 5 6 5 6 6 7 6 7 7 8 8 9 9 9 9 10 10 10 11 11 11 11 11 11 11 11 11 11 13 13 14 14 14 14 15 14 14 14 14
4 4 5 6 7 6 7 7 7 7 7 7 8 8 8 8 9 8 9 10 10 11 12 11 12 12 12 11 10 10 11 12 13 13 13 13 14 14 14 15 14 14
4 5 5 6 7 6 7 7 7 8 8 8 8 9 9 8 9 9 9 10 10 10 10 11 11 11 11 11 11 11 11 11 12 13 13 14 13 13 14 14 14 14
4 4 4 5 5 6 6 6 7 8 8 9 8 8 9 9 9 10 9 9 10 10 10 11 11 10 10 10 10 10 12 13 13 13 13 12 12 13 14 13 14 14
3 3 4 5 5 5 5 6 7 7 7 7 7 8 8 9 10 10 9 9 9 9 10 10 10 10 10 9 10 12 13 14 14 13 14 13 14 13 13 12 12 11
3 3 3 5 6 5 6 7 7 8 7 7 7 8 7 8 9 9 10 10 10 10 10 10 9 9 8 9 12 14 13 14 14 14 14 14 14 13 9 9 11 11
3 4 5 5 6 6 6 7 8 8 8 8 8 8 8 9 9 9 9 10 11 11 10 9 9 8 13 22 20 14 14 13 13 13 13 13 13 10 10 10 10 10
3 4 5 6 6 6 6 8 8 8 8 8 8 9 9 9 9 10 10 10 11 11 11 10 9 9 21 22 22 23 16 14 14 14 14 13 12 11 12 12 10 11
3 4 5 6 6 6 7 7 8 8 8 8 9 10 10 9 10 10 10 10 10 10 11 10 10 15 21 21 22 22 21 15 13 13 12 12 12 12 10 10 11 12
2 3 4 5 5 5 6 7 7 8 9 9 10 9 9 10 10 11 11 10 10 11 12 11 10 17 21 22 22 23 23 20 13 13 12 13 13 12 10 9 10 11
2 3 5 5 5 5 6 7 7 8 8 8 8 8 9 10 10 11 10 10 10 11 11 11 10 15 21 22 22 23 23 20 13 13 12 13 13 11 8 8 11 13
2 3 5 5 5 6 6 7 8 8 9 8 8 9 9 10 10 11 11 11 11 11 11 11 10 19 21 22 22 23 23 20 12 12 12 13 12 10 9 10 12 13
3 4 5 5 5 6 7 8 7 8 9 9 8 9 8 9 9 8 10 11 11 11 12 13 11 19 21 22 22 22 23 14 12 13 13 13 12 11 11 11 11 12
3 4 5 5 6 6 7 7 8 9 8 8 9 9 9 9 10 10 9 10 12 12 12 13 13 17 21 22 22 22 18 12 13 12 13 13 12 13 12 13 13 13
3 3 4 5 5 6 6 7 7 7 7 7 9 10 10 10 11 11 10 10 12 12 12 14 14 17 21 21 21 21 18 13 12 13 13 13 13 14 12 13 15 22
2 2 4 4 5 5 5 7 7 7 7 7 7 8 10 10 10 11 11 10 10 12 16 15 14 16 20 20 21 20 16 12 12 12 13 13 13 14 14 13 14 15
2 3 3 4 5 6 5 6 6 7 7 7 8 7 8 9 9 10 12 11 11 11 11 12 14 14 15 21 20 20 20 13 11 12 13 14 14 13 14 15 14 13
Wind_Direction
27 25 23 17 15 14 19 10 4 1 357 355 355 351 350 349 348 350 348 348 348 347 343 343 344 346 346 345 343 339 336 338 339 338 339 332 322 346 350 342 334 331
27 27 22 17 13 15 21 11 3 2 357 355 354 349 347 347 348 348 347 346 346 345 343 343 345 344 345 344 343 339 337 338 336 338 336 331 335 347 341 335 331 333
23 25 20 16 11 13 15 8 4 2 357 352 351 352 348 347 347 346 347 346 344 344 343 342 342 343 342 343 339 336 335 335 336 336 333 333 339 339 336 331 335 338
21 25 18 15 8 12 11 4 3 3 357 355 355 350 349 348 345 344 346 347 344 342 341 340 341 340 341 341 339 336 334 333 331 328 327 332 338 334 329 330 333 334
12 19 13 12 7 7 10 4 2 1 355 352 349 349 348 349 346 346 345 345 344 342 341 341 340 340 340 340 340 338 337 333 330 328 332 334 336 330 327 330 332 332
12 18 11 10 8 5 9 2 359 359 351 351 349 344 346 346 344 345 345 344 343 342 340 340 340 339 338 337 337 339 336 333 330 333 335 335 331 329 327 328 329 329
5 10 9 8 8 3 9 355 357 357 349 348 342 343 345 343 342 341 341 340 338 339 338 338 338 336 335 334 336 335 334 332 330 333 333 330 327 326 327 328 328 328
3 6 10 2 7 354 4 350 352 353 343 346 343 338 344 339 339 339 338 337 336 334 336 335 334 333 332 334 334 332 330 335 332 332 329 325 324 325 327 327 325 325
5 5 9 1 4 354 358 351 350 346 345 345 339 338 338 338 336 335 336 334 332 332 333 333 332 332 332 333 331 329 328 331 331 329 325 322 323 324 325 324 324 322
6 3 9 0 2 353 351 345 346 340 339 342 334 334 335 332 333 332 333 333 331 331 331 328 328 327 327 327 326 325 324 327 326 325 322 321 321 321 321 322 320 318
9 8 8 1 357 352 347 345 345 342 339 340 333 333 332 329 329 333 332 332 332 330 327 328 326 325 325 325 325 320 322 323 321 320 321 319 318 318 321 321 319 320
9 6 6 358 352 348 344 343 341 342 339 335 336 334 331 330 330 331 331 326 325 323 320 320 320 320 320 320 318 319 318 317 320 321 320 319 318 319 321 319 316 312
6 5 358 353 347 339 337 340 341 339 337 334 333 331 328 329 330 328 326 325 321 319 320 319 318 316 316 315 314 314 317 321 322 320 318 317 315 314 310 304 306 313
359 350 355 348 339 335 337 337 337 335 332 327 326 327 326 327 325 323 320 319 316 316 316 315 314 313 313 313 314 319 323 322 321 321 318 314 311 305 300 306 320 328
349 351 353 348 341 338 339 340 338 332 328 326 325 323 323 322 319 319 320 318 317 318 316 316 315 314 312 318 321 323 324 323 321 319 316 312 308 301 304 322 324 324
352 353 348 347 341 340 338 336 333 331 327 326 326 322 322 322 321 321 319 318 320 318 318 318 317 315 317 321 325 325 325 324 320 316 314 311 307 309 319 322 321 325
360 346 346 342 336 331 333 335 332 329 325 323 323 324 323 323 322 320 320 321 318 317 317 316 315 315 319 323 324 327 328 323 321 317 315 311 309 312 315 319 326 327
353 341 340 332 329 330 330 329 326 324 323 322 322 324 324 321 320 319 318 318 317 315 314 314 313 316 320 322 325 327 327 324 320 319 317 313 311 311 315 326 329 326
333 332 323 320 319 322 323 321 321 319 320 323 323 320 319 318 317 318 317 318 317 317 316 315 313 317 320 324 327 327 326 326 321 320 317 311 309 311 321 330 327 319
319 319 318 314 317 322 322 321 320 320 318 316 315 317 317 314 313 315 314 316 318 316 313 311 312 316 322 324 326 325 326 327 324 320 312 307 308 312 320 325 323 319
313 310 311 312 317 322 321 320 320 318 320 320 322 320 318 317 317 317 316 316 316 314 310 310 312 318 322 323 324 326 327 330 323 318 311 308 309 314 324 327 322 316
310 309 309 313 317 320 320 316 318 321 321 322 319 312 308 306 305 306 311 313 313 316 316 313 313 319 320 322 325 326 327 328 322 316 311 309 313 323 327 324 317 313
307 304 305 311 316 314 314 318 318 319 319 322 318 312 314 313 313 314 312 313 314 315 316 312 312 317 319 321 324 325 327 326 322 315 311 313 316 321 322 318 315 312
298 299 304 309 310 310 313 314 314 313 314 320 316 316 316 315 314 312 310 310 311 312 314 313 311 315 318 319 321 323 326 324 319 317 314 314 314 315 316 313 311 310
296 304 306 307 309 311 316 314 315 316 310 306 306 307 308 312 312 308 307 307 307 308 312 313 311 314 316 317 319 321 324 322 321 316 314 312 314 315 314 312 308 307
307 310 307 318 316 314 311 308 309 306 304 306 302 302 304 308 307 306 305 304 306 310 314 315 310 309 313 315 316 318 320 320 317 317 316 316 315 312 311 309 308 307